DLH62SR LTFM-LIME

Flight info

Callsign DLH62SR
Flight time 2h 17m
Altitude 38000
Route VADEN N618 GOL DCT NISVA DCT TORTO DCT DIGOT DCT ROTAR/N0354F180 L615 VIC/N0357F190 L615 IBUGO/N0352F180 L615 ELTAR
Aircraft A339/H-SADE1E2E3GHIJ3J5M1P2RWXY/LB2D1

Departure

Time 2026-02-19 10:08
Airport İstanbul Airport (LTFM)

Arrival

Time 2026-02-19 12:26
Airport Il Caravaggio International Airport (LIME)
Time Latitude Longitude Altitude Speed Heading
2026-02-19 09:38 41.26472 28.73539 331 ft 0 kts 71°
2026-02-19 09:49 41.26471 28.73531 331 ft 0 kts 71°
2026-02-19 09:49 41.26466 28.73513 331 ft 2 kts 63°
2026-02-19 09:50 41.26458 28.73496 331 ft 2 kts 52°
2026-02-19 09:50 41.26448 28.73482 331 ft 2 kts 43°
2026-02-19 09:50 41.26436 28.73469 331 ft 2 kts 33°
2026-02-19 09:50 41.26423 28.73459 331 ft 2 kts 24°
2026-02-19 09:51 41.26409 28.73452 331 ft 2 kts 14°
2026-02-19 09:51 41.26394 28.73449 331 ft 2 kts
2026-02-19 09:51 41.26379 28.73448 332 ft 2 kts 355°
2026-02-19 09:51 41.26364 28.73451 332 ft 2 kts 346°
2026-02-19 09:52 41.26358 28.73454 332 ft 0 kts 342°
2026-02-19 09:58 41.26363 28.73451 332 ft 2 kts 342°
2026-02-19 09:58 41.26385 28.73442 331 ft 4 kts 342°
2026-02-19 09:58 41.26422 28.73426 331 ft 6 kts 342°
2026-02-19 09:59 41.26475 28.73404 331 ft 8 kts 342°
2026-02-19 09:59 41.26539 28.73376 331 ft 9 kts 334°
2026-02-19 09:59 41.26585 28.73315 330 ft 9 kts 301°
2026-02-19 09:59 41.26598 28.73228 330 ft 10 kts 272°
2026-02-19 10:00 41.26611 28.73134 330 ft 9 kts 305°
2026-02-19 10:00 41.26774 28.73111 328 ft 16 kts 360°
2026-02-19 10:00 41.26893 28.73109 327 ft 17 kts 360°
2026-02-19 10:01 41.27017 28.73108 325 ft 18 kts 360°
2026-02-19 10:01 41.27147 28.73111 324 ft 19 kts
2026-02-19 10:01 41.27280 28.73114 322 ft 19 kts 356°
2026-02-19 10:01 41.27419 28.73099 320 ft 20 kts 360°
2026-02-19 10:02 41.27564 28.73090 317 ft 20 kts 342°
2026-02-19 10:02 41.27634 28.72993 316 ft 9 kts 326°
2026-02-19 10:02 41.27733 28.72979 314 ft 24 kts 359°
2026-02-19 10:02 41.27908 28.72977 311 ft 25 kts
2026-02-19 10:03 41.28086 28.72976 306 ft 26 kts 359°
2026-02-19 10:03 41.28271 28.72971 299 ft 27 kts 359°
2026-02-19 10:03 41.28468 28.72967 291 ft 29 kts 359°
2026-02-19 10:03 41.28676 28.72963 282 ft 30 kts 359°
2026-02-19 10:04 41.28896 28.72958 272 ft 32 kts 359°
2026-02-19 10:04 41.29364 28.72949 255 ft 34 kts 359°
2026-02-19 10:04 41.29604 28.72944 250 ft 34 kts 359°
2026-02-19 10:05 41.29822 28.72935 245 ft 13 kts 356°
2026-02-19 10:05 41.29881 28.72878 245 ft 10 kts 276°
2026-02-19 10:05 41.29880 28.72824 245 ft 5 kts 268°
2026-02-19 10:05 41.29878 28.72760 245 ft 7 kts 267°
2026-02-19 10:06 41.29875 28.72695 245 ft 7 kts 272°
2026-02-19 10:06 41.29877 28.72618 245 ft 9 kts 272°
2026-02-19 10:06 41.29881 28.72525 245 ft 10 kts 272°
2026-02-19 10:06 41.29848 28.72453 246 ft 7 kts 202°
2026-02-19 10:07 41.29796 28.72453 247 ft 7 kts 178°
2026-02-19 10:07 41.29647 28.72458 250 ft 50 kts 179°
2026-02-19 10:07 41.29073 28.72467 266 ft 110 kts 179°
2026-02-19 10:07 41.28144 28.72484 302 ft 156 kts 180°
2026-02-19 10:08 41.27013 28.72494 747 ft 162 kts 180°
2026-02-19 10:08 41.24566 28.72582 1552 ft 189 kts 178°
2026-02-19 10:08 41.23197 28.72673 1978 ft 206 kts 177°
2026-02-19 10:09 41.21705 28.72776 2379 ft 223 kts 177°
2026-02-19 10:09 41.20124 28.72623 2699 ft 241 kts 201°
2026-02-19 10:09 41.18752 28.71317 3178 ft 252 kts 234°
2026-02-19 10:09 41.18084 28.69193 3879 ft 254 kts 264°
2026-02-19 10:10 41.18049 28.66867 4603 ft 255 kts 270°
2026-02-19 10:10 41.18052 28.64524 5290 ft 258 kts 270°
2026-02-19 10:10 41.18042 28.62119 5988 ft 261 kts 270°
2026-02-19 10:10 41.18043 28.59715 6672 ft 264 kts 275°
2026-02-19 10:11 41.18612 28.57444 7307 ft 267 kts 306°
2026-02-19 10:11 41.19981 28.55835 7988 ft 269 kts 335°
2026-02-19 10:11 41.21780 28.55278 8663 ft 271 kts 359°
2026-02-19 10:11 41.23663 28.55271 9326 ft 275 kts
2026-02-19 10:12 41.25624 28.55270 9845 ft 286 kts
2026-02-19 10:12 41.29732 28.55236 10780 ft 310 kts
2026-02-19 10:12 41.31933 28.55388 11088 ft 328 kts
2026-02-19 10:13 41.34274 28.55716 11393 ft 345 kts
2026-02-19 10:13 41.34953 28.55818 11477 ft 350 kts
2026-02-19 10:13 41.36763 28.56095 11693 ft 362 kts
2026-02-19 10:13 41.39302 28.56486 12020 ft 377 kts
2026-02-19 10:14 41.41908 28.56876 12611 ft 383 kts
2026-02-19 10:14 41.47277 28.57121 14007 ft 389 kts 360°
2026-02-19 10:14 41.50008 28.57071 14678 ft 393 kts 359°
2026-02-19 10:15 41.52725 28.57008 15327 ft 397 kts 359°
2026-02-19 10:15 41.55509 28.56943 15980 ft 401 kts 359°
2026-02-19 10:15 41.58279 28.56881 16614 ft 404 kts 359°
2026-02-19 10:15 41.61113 28.56819 17248 ft 408 kts 359°
2026-02-19 10:16 41.63978 28.56760 17874 ft 412 kts 359°
2026-02-19 10:16 41.69740 28.56415 19047 ft 420 kts 348°
2026-02-19 10:16 41.72424 28.54949 19603 ft 424 kts 328°
2026-02-19 10:17 41.74663 28.52375 20197 ft 426 kts 310°
2026-02-19 10:17 41.76185 28.49033 20730 ft 429 kts 292°
2026-02-19 10:17 41.76875 28.45137 21247 ft 433 kts 275°
2026-02-19 10:17 41.77048 28.41097 21787 ft 435 kts 274°
2026-02-19 10:18 41.77230 28.37071 22272 ft 439 kts 274°
2026-02-19 10:18 41.77433 28.33013 22748 ft 443 kts 274°
2026-02-19 10:18 41.77649 28.28875 23225 ft 446 kts 274°
2026-02-19 10:18 41.77878 28.24760 23682 ft 449 kts 276°
2026-02-19 10:19 41.78451 28.20628 24110 ft 452 kts 285°
2026-02-19 10:19 41.79515 28.16644 24556 ft 455 kts 294°
2026-02-19 10:19 41.80994 28.12927 24982 ft 458 kts 300°
2026-02-19 10:19 41.82618 28.09295 25395 ft 460 kts 301°
2026-02-19 10:20 41.84236 28.05558 25779 ft 463 kts 296°
2026-02-19 10:20 41.86089 27.97284 26549 ft 469 kts 277°
2026-02-19 10:20 41.86322 27.92960 26922 ft 471 kts 273°
2026-02-19 10:21 41.86454 27.88539 27284 ft 474 kts 272°
2026-02-19 10:21 41.86686 27.79726 27964 ft 479 kts 272°
2026-02-19 10:21 41.86813 27.75231 28300 ft 481 kts 272°
2026-02-19 10:22 41.86944 27.70768 28628 ft 483 kts 272°
2026-02-19 10:22 41.87077 27.66289 28942 ft 486 kts 272°
2026-02-19 10:22 41.87210 27.61789 29337 ft 486 kts 272°
2026-02-19 10:22 41.87475 27.57257 29794 ft 484 kts 279°
2026-02-19 10:23 41.88205 27.52887 30236 ft 483 kts 287°
2026-02-19 10:23 41.89381 27.48712 30660 ft 481 kts 295°
2026-02-19 10:23 41.90973 27.44802 31059 ft 481 kts 303°
2026-02-19 10:23 41.92956 27.41214 31449 ft 480 kts 311°
2026-02-19 10:24 41.95183 27.37923 31847 ft 479 kts 313°
2026-02-19 10:24 41.99748 27.31433 32614 ft 477 kts 313°
2026-02-19 10:24 42.02012 27.28202 32983 ft 477 kts 313°
2026-02-19 10:25 42.04267 27.24965 33349 ft 476 kts 313°
2026-02-19 10:25 42.06535 27.21694 33713 ft 475 kts 313°
2026-02-19 10:25 42.08752 27.18428 34062 ft 474 kts 312°
2026-02-19 10:25 42.10945 27.15141 34408 ft 473 kts 311°
2026-02-19 10:26 42.13121 27.11861 34746 ft 473 kts 311°
2026-02-19 10:26 42.15299 27.08577 35075 ft 472 kts 311°
2026-02-19 10:26 42.17470 27.05299 35396 ft 471 kts 311°
2026-02-19 10:26 42.19666 27.01984 35713 ft 471 kts 311°
2026-02-19 10:27 42.21811 26.98744 36012 ft 470 kts 311°
2026-02-19 10:27 42.24000 26.95434 36304 ft 470 kts 311°
2026-02-19 10:27 42.26169 26.92151 36526 ft 470 kts 311°
2026-02-19 10:27 42.28343 26.88858 36717 ft 472 kts 311°
2026-02-19 10:28 42.30519 26.85558 36898 ft 473 kts 311°
2026-02-19 10:28 42.34883 26.78927 37269 ft 475 kts 311°
2026-02-19 10:28 42.37067 26.75602 37445 ft 476 kts 311°
2026-02-19 10:29 42.39263 26.72255 37613 ft 477 kts 311°
2026-02-19 10:29 42.41454 26.68909 37774 ft 478 kts 311°
2026-02-19 10:29 42.43652 26.65550 37935 ft 479 kts 311°
2026-02-19 10:30 42.48038 26.58767 37991 ft 481 kts 309°
2026-02-19 10:30 42.51998 26.51438 37995 ft 481 kts 303°
2026-02-19 10:31 42.55271 26.43585 37996 ft 481 kts 296°
2026-02-19 10:31 42.57847 26.35260 37996 ft 481 kts 290°
2026-02-19 10:32 42.60035 26.26659 37996 ft 481 kts 289°
2026-02-19 10:32 42.63266 26.13770 37996 ft 481 kts 289°
2026-02-19 10:33 42.65403 26.05243 37995 ft 481 kts 289°
2026-02-19 10:33 42.67559 25.96621 37995 ft 481 kts 289°
2026-02-19 10:34 42.69693 25.88060 37995 ft 481 kts 289°
2026-02-19 10:34 42.71828 25.79462 37995 ft 481 kts 289°
2026-02-19 10:35 42.73951 25.70879 37995 ft 481 kts 289°
2026-02-19 10:35 42.76062 25.62319 37995 ft 481 kts 289°
2026-02-19 10:36 42.79248 25.49330 37995 ft 481 kts 289°
2026-02-19 10:37 42.81345 25.40746 37995 ft 481 kts 289°
2026-02-19 10:37 42.83442 25.32124 37995 ft 481 kts 288°
2026-02-19 10:38 42.85539 25.23472 37995 ft 481 kts 288°
2026-02-19 10:38 42.87624 25.14834 37995 ft 481 kts 288°
2026-02-19 10:39 42.89706 25.06180 37995 ft 481 kts 288°
2026-02-19 10:39 42.91779 24.97526 37995 ft 481 kts 288°
2026-02-19 10:40 42.93842 24.88883 37995 ft 481 kts 288°
2026-02-19 10:40 42.96925 24.75902 37995 ft 481 kts 288°
2026-02-19 10:41 42.98971 24.67244 37995 ft 481 kts 288°
2026-02-19 10:41 43.01002 24.58610 37996 ft 481 kts 288°
2026-02-19 10:42 43.03043 24.49898 37996 ft 481 kts 288°
2026-02-19 10:42 43.05062 24.41238 37996 ft 481 kts 288°
2026-02-19 10:43 43.06980 24.32504 37995 ft 481 kts 283°
2026-02-19 10:43 43.08188 24.23579 37996 ft 481 kts 276°
2026-02-19 10:44 43.08463 24.09884 37996 ft 481 kts 266°
2026-02-19 10:45 43.07788 24.00830 37996 ft 481 kts 263°
2026-02-19 10:45 43.07035 23.91769 37996 ft 481 kts 264°
2026-02-19 10:46 43.06284 23.82724 37996 ft 481 kts 264°
2026-02-19 10:46 43.05527 23.73651 37996 ft 481 kts 264°
2026-02-19 10:47 43.04768 23.64622 37995 ft 481 kts 264°
2026-02-19 10:47 43.04003 23.55595 37995 ft 481 kts 264°
2026-02-19 10:48 43.03226 23.46516 37995 ft 481 kts 264°
2026-02-19 10:48 43.02049 23.32932 37995 ft 481 kts 263°
2026-02-19 10:49 43.01255 23.23872 37995 ft 481 kts 263°
2026-02-19 10:49 43.00455 23.14833 37995 ft 481 kts 263°
2026-02-19 10:50 42.99646 23.05791 37995 ft 481 kts 263°
2026-02-19 10:50 42.98832 22.96772 37995 ft 481 kts 263°
2026-02-19 10:51 42.98315 22.87711 37995 ft 481 kts 269°
2026-02-19 10:51 42.98647 22.78628 37996 ft 481 kts 277°
2026-02-19 10:52 43.00765 22.65292 37996 ft 481 kts 288°
2026-02-19 10:53 43.02844 22.56659 37996 ft 481 kts 289°
2026-02-19 10:53 43.04940 22.48027 37996 ft 481 kts 289°
2026-02-19 10:54 43.07037 22.39327 37996 ft 481 kts 288°
2026-02-19 10:54 43.09118 22.30639 37996 ft 481 kts 288°
2026-02-19 10:55 43.11181 22.21980 37996 ft 481 kts 288°
2026-02-19 10:55 43.13248 22.13274 37996 ft 481 kts 288°
2026-02-19 10:56 43.15302 22.04585 37996 ft 481 kts 288°
2026-02-19 10:56 43.18368 21.91553 37996 ft 481 kts 288°
2026-02-19 10:57 43.20412 21.82822 37996 ft 481 kts 288°
2026-02-19 10:57 43.22429 21.74173 37996 ft 481 kts 288°
2026-02-19 10:58 43.24454 21.65455 37996 ft 481 kts 288°
2026-02-19 10:58 43.26474 21.56726 37996 ft 481 kts 288°
2026-02-19 10:59 43.28480 21.48017 37996 ft 481 kts 288°
2026-02-19 10:59 43.30490 21.39263 37996 ft 481 kts 288°
2026-02-19 11:00 43.33484 21.26155 37996 ft 481 kts 287°
2026-02-19 11:01 43.35478 21.17381 37996 ft 481 kts 287°
2026-02-19 11:01 43.37460 21.08625 37995 ft 481 kts 287°
2026-02-19 11:02 43.39425 20.99910 37995 ft 481 kts 287°
2026-02-19 11:02 43.41401 20.91110 37995 ft 481 kts 287°
2026-02-19 11:03 43.43361 20.82347 37995 ft 481 kts 287°
2026-02-19 11:03 43.45313 20.73581 37995 ft 481 kts 287°
2026-02-19 11:04 43.47258 20.64812 37995 ft 481 kts 287°
2026-02-19 11:04 43.50163 20.51644 37995 ft 481 kts 287°
2026-02-19 11:05 43.52089 20.42867 37995 ft 481 kts 287°
2026-02-19 11:05 43.54015 20.34056 37995 ft 481 kts 287°
2026-02-19 11:06 43.55931 20.25253 37996 ft 481 kts 287°
2026-02-19 11:06 43.57837 20.16462 37996 ft 481 kts 287°
2026-02-19 11:07 43.59734 20.07669 37995 ft 481 kts 287°
2026-02-19 11:07 43.61636 19.98816 37995 ft 481 kts 286°
2026-02-19 11:08 43.64460 19.85593 37995 ft 481 kts 286°
2026-02-19 11:09 43.66332 19.76772 37995 ft 481 kts 286°
2026-02-19 11:09 43.68165 19.67902 37995 ft 481 kts 285°
2026-02-19 11:10 43.69906 19.59008 37995 ft 481 kts 285°
2026-02-19 11:10 43.71638 19.50096 37995 ft 481 kts 285°
2026-02-19 11:11 43.73361 19.41209 37995 ft 481 kts 285°
2026-02-19 11:11 43.75079 19.32319 37996 ft 481 kts 284°
2026-02-19 11:12 43.76792 19.23417 37996 ft 481 kts 284°
2026-02-19 11:12 43.79348 19.10064 37996 ft 481 kts 284°
2026-02-19 11:13 43.81046 19.01135 37996 ft 481 kts 284°
2026-02-19 11:13 43.82740 18.92193 37996 ft 481 kts 284°
2026-02-19 11:14 43.84427 18.83240 37996 ft 481 kts 284°
2026-02-19 11:14 43.86093 18.74359 37995 ft 481 kts 284°
2026-02-19 11:15 43.87767 18.65395 37995 ft 481 kts 284°
2026-02-19 11:15 43.88976 18.58896 37995 ft 481 kts 284°
2026-02-19 11:16 43.90847 18.48787 37995 ft 481 kts 284°
2026-02-19 11:17 43.92495 18.39844 37995 ft 481 kts 284°
2026-02-19 11:17 43.94139 18.30874 37995 ft 481 kts 284°
2026-02-19 11:18 43.95775 18.21908 37996 ft 481 kts 284°
2026-02-19 11:18 43.97404 18.12934 37996 ft 481 kts 284°
2026-02-19 11:19 43.99021 18.03983 37996 ft 481 kts 284°
2026-02-19 11:19 44.00636 17.95001 37996 ft 481 kts 284°
2026-02-19 11:20 44.02252 17.85968 37995 ft 481 kts 284°
2026-02-19 11:20 44.04646 17.72506 37995 ft 481 kts 284°
2026-02-19 11:21 44.06234 17.63516 37995 ft 481 kts 284°
2026-02-19 11:21 44.07820 17.54493 37995 ft 481 kts 284°
2026-02-19 11:22 44.09392 17.45509 37996 ft 481 kts 284°
2026-02-19 11:22 44.10962 17.36489 37995 ft 481 kts 284°
2026-02-19 11:23 44.12522 17.27481 37995 ft 481 kts 283°
2026-02-19 11:23 44.14077 17.18458 37995 ft 481 kts 283°
2026-02-19 11:24 44.16392 17.04933 37995 ft 481 kts 283°
2026-02-19 11:25 44.17930 16.95894 37996 ft 481 kts 283°
2026-02-19 11:25 44.19466 16.86812 37996 ft 481 kts 283°
2026-02-19 11:26 44.20984 16.77795 37996 ft 481 kts 283°
2026-02-19 11:26 44.22501 16.68738 37996 ft 481 kts 283°
2026-02-19 11:27 44.24008 16.59693 37996 ft 481 kts 283°
2026-02-19 11:27 44.25509 16.50632 37996 ft 481 kts 283°
2026-02-19 11:28 44.27000 16.41582 37996 ft 481 kts 283°
2026-02-19 11:28 44.29223 16.28009 37995 ft 481 kts 283°
2026-02-19 11:29 44.30703 16.18905 37995 ft 481 kts 282°
2026-02-19 11:29 44.32163 16.09872 37995 ft 481 kts 282°
2026-02-19 11:30 44.33630 16.00745 37995 ft 481 kts 282°
2026-02-19 11:30 44.35076 15.91689 37995 ft 481 kts 282°
2026-02-19 11:31 44.36523 15.82571 37995 ft 481 kts 282°
2026-02-19 11:31 44.38010 15.73522 37995 ft 481 kts 285°
2026-02-19 11:32 44.41285 15.60303 37996 ft 481 kts 294°
2026-02-19 11:33 44.44107 15.51872 37996 ft 481 kts 296°
2026-02-19 11:33 44.47001 15.43429 37996 ft 481 kts 296°
2026-02-19 11:34 44.49867 15.35025 37996 ft 481 kts 296°
2026-02-19 11:34 44.52728 15.26590 37996 ft 481 kts 295°
2026-02-19 11:35 44.55575 15.18166 37996 ft 481 kts 295°
2026-02-19 11:35 44.58431 15.09685 37996 ft 481 kts 295°
2026-02-19 11:36 44.61268 15.01233 37996 ft 481 kts 295°
2026-02-19 11:36 44.65521 14.88514 37996 ft 481 kts 295°
2026-02-19 11:37 44.68335 14.80061 37996 ft 481 kts 295°
2026-02-19 11:37 44.71166 14.71534 37996 ft 481 kts 295°
2026-02-19 11:38 44.73964 14.63076 37996 ft 481 kts 295°
2026-02-19 11:38 44.76786 14.54520 37996 ft 481 kts 295°
2026-02-19 11:39 44.79570 14.46049 37996 ft 481 kts 295°
2026-02-19 11:39 44.82368 14.37512 37996 ft 481 kts 295°
2026-02-19 11:40 44.86553 14.24688 37996 ft 481 kts 294°
2026-02-19 11:41 44.89323 14.16164 37996 ft 481 kts 294°
2026-02-19 11:41 44.92099 14.07595 37996 ft 481 kts 294°
2026-02-19 11:42 44.94867 13.99023 37996 ft 481 kts 294°
2026-02-19 11:42 44.97612 13.90493 37996 ft 481 kts 294°
2026-02-19 11:43 45.00362 13.81919 37996 ft 481 kts 294°
2026-02-19 11:43 45.03115 13.73307 37996 ft 481 kts 294°
2026-02-19 11:44 45.05859 13.64696 37996 ft 481 kts 294°
2026-02-19 11:44 45.09939 13.51833 37996 ft 481 kts 294°
2026-02-19 11:45 45.12673 13.43178 37996 ft 481 kts 294°
2026-02-19 11:45 45.15389 13.34549 37996 ft 481 kts 294°
2026-02-19 11:46 45.18089 13.25937 37997 ft 481 kts 294°
2026-02-19 11:46 45.20790 13.17284 37997 ft 481 kts 294°
2026-02-19 11:47 45.23467 13.08618 37996 ft 481 kts 292°
2026-02-19 11:47 45.25675 12.99724 37996 ft 481 kts 286°
2026-02-19 11:48 45.27720 12.85827 37997 ft 481 kts 278°
2026-02-19 11:49 45.28840 12.76595 37643 ft 475 kts 283°
2026-02-19 11:49 45.29591 12.72021 36894 ft 475 kts 284°
2026-02-19 11:49 45.30362 12.67491 35992 ft 478 kts 284°
2026-02-19 11:49 45.31142 12.62946 35077 ft 480 kts 284°
2026-02-19 11:50 45.31970 12.58333 34178 ft 481 kts 286°
2026-02-19 11:50 45.32933 12.53854 33477 ft 478 kts 289°
2026-02-19 11:50 45.34048 12.49465 32820 ft 474 kts 291°
2026-02-19 11:50 45.35319 12.45160 32159 ft 471 kts 295°
2026-02-19 11:51 45.36720 12.41017 31507 ft 468 kts 297°
2026-02-19 11:51 45.38226 12.36926 30850 ft 465 kts 298°
2026-02-19 11:51 45.39730 12.32899 30180 ft 462 kts 298°
2026-02-19 11:51 45.41228 12.28895 29502 ft 460 kts 298°
2026-02-19 11:52 45.42720 12.24895 28808 ft 459 kts 298°
2026-02-19 11:52 45.45661 12.16982 27775 ft 450 kts 297°
2026-02-19 11:52 45.47111 12.13067 27296 ft 447 kts 297°
2026-02-19 11:53 45.48546 12.09185 26800 ft 443 kts 297°
2026-02-19 11:53 45.49968 12.05330 26344 ft 441 kts 297°
2026-02-19 11:53 45.51386 12.01482 25818 ft 440 kts 297°
2026-02-19 11:53 45.52799 11.97641 25352 ft 438 kts 297°
2026-02-19 11:54 45.54202 11.93821 24911 ft 434 kts 297°
2026-02-19 11:54 45.55587 11.90042 24485 ft 431 kts 297°
2026-02-19 11:54 45.56964 11.86281 24059 ft 428 kts 297°
2026-02-19 11:55 45.59690 11.78815 23216 ft 422 kts 297°
2026-02-19 11:55 45.61036 11.75125 22796 ft 419 kts 297°
2026-02-19 11:55 45.62328 11.71428 22372 ft 416 kts 293°
2026-02-19 11:55 45.63256 11.67541 21951 ft 413 kts 284°
2026-02-19 11:56 45.63765 11.63541 21534 ft 410 kts 276°
2026-02-19 11:56 45.63947 11.55490 20705 ft 405 kts 271°
2026-02-19 11:56 45.63974 11.51490 20287 ft 403 kts 271°
2026-02-19 11:57 45.64012 11.47507 19871 ft 400 kts 271°
2026-02-19 11:57 45.64055 11.43557 19456 ft 398 kts 271°
2026-02-19 11:57 45.64098 11.39673 19045 ft 396 kts 271°
2026-02-19 11:57 45.64143 11.35740 18629 ft 394 kts 271°
2026-02-19 11:58 45.64187 11.31848 18213 ft 392 kts 271°
2026-02-19 11:58 45.64229 11.27931 17794 ft 389 kts 271°
2026-02-19 11:58 45.64268 11.24080 17380 ft 387 kts 270°
2026-02-19 11:58 45.64305 11.20246 16967 ft 385 kts 270°
2026-02-19 11:59 45.64339 11.16438 16554 ft 383 kts 270°
2026-02-19 11:59 45.64372 11.12693 16146 ft 381 kts 270°
2026-02-19 11:59 45.64403 11.08932 15751 ft 377 kts 270°
2026-02-19 11:59 45.64433 11.05233 15418 ft 372 kts 270°
2026-02-19 12:00 45.64463 11.01564 15120 ft 366 kts 271°
2026-02-19 12:00 45.64525 10.94446 14496 ft 356 kts 271°
2026-02-19 12:00 45.64554 10.90925 14127 ft 353 kts 271°
2026-02-19 12:01 45.64580 10.87450 13844 ft 347 kts 271°
2026-02-19 12:01 45.64605 10.84070 13738 ft 331 kts 271°
2026-02-19 12:01 45.64628 10.80903 13672 ft 313 kts 271°
2026-02-19 12:01 45.64652 10.77882 13598 ft 297 kts 271°
2026-02-19 12:02 45.64674 10.75008 13525 ft 282 kts 271°
2026-02-19 12:02 45.64693 10.72279 13465 ft 272 kts 271°
2026-02-19 12:02 45.64712 10.69577 13409 ft 272 kts 271°
2026-02-19 12:02 45.64731 10.66873 13358 ft 272 kts 271°
2026-02-19 12:03 45.64744 10.64154 13326 ft 281 kts 269°
2026-02-19 12:03 45.64644 10.61252 13308 ft 299 kts 265°
2026-02-19 12:03 45.64437 10.58304 13232 ft 299 kts 264°
2026-02-19 12:03 45.64216 10.55360 12930 ft 299 kts 264°
2026-02-19 12:04 45.63995 10.52452 12596 ft 299 kts 264°
2026-02-19 12:04 45.63548 10.46568 12012 ft 297 kts 264°
2026-02-19 12:04 45.63327 10.43645 11724 ft 295 kts 264°
2026-02-19 12:05 45.63107 10.40737 11437 ft 294 kts 264°
2026-02-19 12:05 45.62890 10.37869 11155 ft 293 kts 264°
2026-02-19 12:05 45.62671 10.34975 10870 ft 292 kts 263°
2026-02-19 12:05 45.62453 10.32109 10589 ft 290 kts 263°
2026-02-19 12:06 45.62236 10.29280 10311 ft 289 kts 263°
2026-02-19 12:06 45.62015 10.26410 10030 ft 288 kts 263°
2026-02-19 12:06 45.61798 10.23597 9755 ft 287 kts 263°
2026-02-19 12:06 45.61581 10.20795 9482 ft 286 kts 263°
2026-02-19 12:07 45.61360 10.17972 9207 ft 284 kts 263°
2026-02-19 12:07 45.61143 10.15179 8935 ft 283 kts 263°
2026-02-19 12:07 45.60924 10.12378 8663 ft 282 kts 263°
2026-02-19 12:07 45.60709 10.09638 8284 ft 277 kts 263°
2026-02-19 12:08 45.60505 10.06979 8067 ft 265 kts 266°
2026-02-19 12:08 45.60896 10.01964 7607 ft 247 kts 286°
2026-02-19 12:08 45.61396 9.99639 7251 ft 245 kts 287°
2026-02-19 12:09 45.61874 9.97337 6884 ft 243 kts 285°
2026-02-19 12:09 45.62316 9.95024 6457 ft 241 kts 285°
2026-02-19 12:09 45.62726 9.92772 6235 ft 230 kts 284°
2026-02-19 12:09 45.63117 9.90603 6025 ft 219 kts 284°
2026-02-19 12:10 45.63488 9.88562 5831 ft 207 kts 285°
2026-02-19 12:10 45.63839 9.86643 5663 ft 196 kts 285°
2026-02-19 12:10 45.64180 9.84784 5483 ft 187 kts 285°
2026-02-19 12:10 45.64504 9.83027 5243 ft 183 kts 285°
2026-02-19 12:11 45.64828 9.81268 4948 ft 182 kts 285°
2026-02-19 12:11 45.65155 9.79494 4515 ft 189 kts 285°
2026-02-19 12:11 45.65489 9.77686 4159 ft 190 kts 285°
2026-02-19 12:11 45.65830 9.75846 3833 ft 190 kts 285°
2026-02-19 12:12 45.66177 9.73968 3464 ft 195 kts 285°
2026-02-19 12:12 45.66853 9.70320 3350 ft 186 kts 285°
2026-02-19 12:12 45.67193 9.68482 3645 ft 195 kts 285°
2026-02-19 12:13 45.67535 9.66646 4158 ft 192 kts 288°
2026-02-19 12:13 45.67815 9.64780 4378 ft 192 kts 268°
2026-02-19 12:13 45.67341 9.63045 4379 ft 191 kts 229°
2026-02-19 12:13 45.66191 9.62123 4390 ft 191 kts 193°
2026-02-19 12:14 45.64892 9.62243 4391 ft 191 kts 159°
2026-02-19 12:14 45.63723 9.63129 4401 ft 191 kts 149°
2026-02-19 12:14 45.62585 9.64134 4395 ft 191 kts 152°
2026-02-19 12:14 45.61370 9.64900 4393 ft 191 kts 159°
2026-02-19 12:15 45.60112 9.65575 4392 ft 191 kts 160°
2026-02-19 12:15 45.58866 9.66227 4391 ft 191 kts 160°
2026-02-19 12:15 45.57625 9.66928 4389 ft 191 kts 149°
2026-02-19 12:15 45.56781 9.68336 4379 ft 191 kts 110°
2026-02-19 12:16 45.56523 9.70202 4398 ft 191 kts 96°
2026-02-19 12:16 45.56312 9.73980 4391 ft 191 kts 94°
2026-02-19 12:16 45.56220 9.75857 4390 ft 191 kts 94°
2026-02-19 12:17 45.56129 9.77737 4390 ft 191 kts 94°
2026-02-19 12:17 45.55878 9.79595 4388 ft 191 kts 109°
2026-02-19 12:17 45.55384 9.81354 4392 ft 191 kts 113°
2026-02-19 12:17 45.54848 9.83100 4391 ft 191 kts 114°
2026-02-19 12:18 45.54313 9.84818 4390 ft 191 kts 114°
2026-02-19 12:18 45.53773 9.86550 4390 ft 191 kts 114°
2026-02-19 12:18 45.53234 9.88280 4390 ft 191 kts 114°
2026-02-19 12:18 45.52690 9.90023 4389 ft 190 kts 114°
2026-02-19 12:19 45.52171 9.91682 4378 ft 181 kts 114°
2026-02-19 12:19 45.51655 9.93336 4385 ft 181 kts 114°
2026-02-19 12:19 45.51395 9.95052 4377 ft 180 kts 82°
2026-02-19 12:19 45.51958 9.96586 4381 ft 180 kts 40°
2026-02-19 12:20 45.53108 9.97207 4386 ft 180 kts 359°
2026-02-19 12:20 45.55618 9.97029 4396 ft 181 kts
2026-02-19 12:20 45.56888 9.97136 4392 ft 181 kts
2026-02-19 12:21 45.58140 9.97258 4390 ft 181 kts
2026-02-19 12:21 45.59380 9.97380 4389 ft 180 kts
2026-02-19 12:21 45.60622 9.97471 4324 ft 178 kts 352°
2026-02-19 12:21 45.61723 9.96702 4229 ft 181 kts 312°
2026-02-19 12:22 45.62310 9.95131 3999 ft 180 kts 289°
2026-02-19 12:22 45.62649 9.93405 3751 ft 179 kts 284°
2026-02-19 12:22 45.62936 9.91681 3502 ft 179 kts 283°
2026-02-19 12:22 45.63231 9.89947 3252 ft 179 kts 284°
2026-02-19 12:23 45.63537 9.88232 3006 ft 177 kts 284°
2026-02-19 12:23 45.63842 9.86564 2773 ft 175 kts 284°
2026-02-19 12:23 45.64153 9.84891 2537 ft 170 kts 285°
2026-02-19 12:23 45.64447 9.83304 2317 ft 164 kts 285°
2026-02-19 12:24 45.64738 9.81735 2116 ft 163 kts 285°
2026-02-19 12:24 45.65298 9.78707 1703 ft 152 kts 285°
2026-02-19 12:24 45.65566 9.77260 1505 ft 149 kts 285°
2026-02-19 12:25 45.65832 9.75825 1305 ft 147 kts 285°
2026-02-19 12:25 45.66096 9.74402 1107 ft 147 kts 285°
2026-02-19 12:25 45.66362 9.72970 908 ft 146 kts 285°
2026-02-19 12:25 45.66621 9.71573 790 ft 126 kts 285°
2026-02-19 12:26 45.66774 9.70782 789 ft 40 kts 282°
2026-02-19 12:26 45.66801 9.70609 789 ft 15 kts 283°
2026-02-19 12:26 45.66826 9.70459 789 ft 15 kts 283°
2026-02-19 12:26 45.66855 9.70306 789 ft 16 kts 286°
2026-02-19 12:27 45.66888 9.70149 789 ft 16 kts 286°
2026-02-19 12:27 45.66883 9.69993 789 ft 15 kts 245°
2026-02-19 12:27 45.66855 9.69913 789 ft 7 kts 243°
2026-02-19 12:27 45.66828 9.69842 789 ft 9 kts 242°
2026-02-19 12:28 45.66808 9.69799 789 ft 5 kts 222°
2026-02-19 12:28 45.66718 9.69754 789 ft 3 kts 194°
2026-02-19 12:28 45.66711 9.69752 789 ft 0 kts 194°